Weather Roundup
Issued by NWS

Home | Current Version | Previous Version | Text Only | Print | Product List | Glossary On
Versions: 1 2 3 4 5 6 7 8 9 10 11 12 13 14 15 16 17 18 19 20 21 22 23 24 25 26 27 28 29 30 31 32 33 34 35 36 37 38 39 40 41 42 43 44 45 46 47 48 49 50
386
NZUS93 KARX 252310
HRRWXR

CURRENT HOURLY OBSERVATIONS ACROSS
MUCH OF THE UPPER MISSISSIPPI VALLEY
NATIONAL WEATHER SERVICE LA CROSSE WI
600 PM CDT WED APR 25 2018


...SOUTHEAST MINNESOTA...


CITY           SKY/WX    TMP DP  RH WIND       PRES   REMARKS
ROCHESTER      FAIR      59  30  33 NW5       30.04F
ROCHESTER/MAYO FAIR      58  27  30 W5        30.04F
WINONA         FAIR      59  27  29 N3        30.01F
AUSTIN         FAIR      57  28  33 CALM      30.04F
ALBERT LEA     FAIR      55  27  33 NW5       30.05F
DODGE CENTER   FAIR      55  28  35 NW9       30.05S
PRESTON        FAIR      56  25  30 N3        30.04F
OWATONNA       FAIR      57  32  38 W6        30.05F
FARIBAULT      NOT AVBL
$$

...ELSEWHERE IN MINNESOTA...


CITY           SKY/WX    TMP DP  RH WIND       PRES   REMARKS
MINNEAPOLIS    PTSUNNY   59  24  26 SW6       30.03F
INTNL FALLS    FAIR      60  27  28 SW14G23   29.88F
DULUTH         FAIR      57  22  25 VRB7      29.98F
RED WING       FAIR      61  16  17 W7        30.03S
REDWOOD FALLS  SUNNY     55  31  39 SW8       30.05F
MANKATO        FAIR      56  33  42 VRB6      30.05F
WORTHINGTON    MOSUNNY   57  31  37 W3        30.06F
FAIRMONT       SUNNY     55  30  38 CALM      30.06F
$$

...SOUTHWEST WISCONSIN...


CITY           SKY/WX    TMP DP  RH WIND       PRES   REMARKS
LA CROSSE      FAIR      61  28  28 W8        30.02F
PRAIRIE DU CHI FAIR      61  19  19 NW3       30.02F
BOSCOBEL       FAIR      64  28  25 VRB5      30.02F
LONE ROCK      FAIR      62  27  26 MISG      30.01F
PLATTEVILLE    FAIR      62  30  29 N7        30.01F
FORT MC COY    FAIR      59  25  27 CALM      30.03F
CAMP DOUGLAS   MOSUNNY   59  25  27 N5        30.02F
MAUSTON-NEW LI FAIR     N/A N/A N/A NW5       30.02F
VIROQUA        FAIR      58  30  34 N6        30.03S
WIS DELLS      FAIR      58  18  21 N5        30.02F
$$

...ELSEWHERE IN WISCONSIN...


CITY           SKY/WX    TMP DP  RH WIND       PRES   REMARKS
MILWAUKEE      FAIR      44  30  57 NE10      30.06F
MADISON        FAIR      59  26  28 VRB3      30.01F
GREEN BAY      FAIR      55  33  43 W7        30.02F
EAU CLAIRE     FAIR      58  25  28 CALM      30.02F
BLACK RVR FLS  FAIR      60  20  20 CALM      30.02F
MEDFORD        FAIR      54  25  33 NW3       30.01F
WAUSAU         FAIR      55  22  27 W6        29.99F
WIS RAPIDS     FAIR      56  27  32 NW7       30.04S
MARSHFIELD     FAIR      54  28  36 SW3       30.01F
RICE LAKE      FAIR      55  21  27 SW5       30.04F
$$

...NORTHEAST IOWA...


CITY           SKY/WX    TMP DP  RH WIND       PRES   REMARKS
WATERLOO       FAIR      62  29  28 N8        30.03F
DUBUQUE        FAIR      61  28  28 N6        30.01F
DECORAH        FAIR      59  27  29 CALM      30.02F
MASON CITY     SUNNY     58  33  39 NW8       30.06F
CHARLES CITY   FAIR      59  34  38 NW9G15    30.04F
OELWEIN        FAIR      61  30  31 N8G15     30.03F
$$

...ELSEWHERE IN IOWA...


CITY           SKY/WX    TMP DP  RH WIND       PRES   REMARKS
DES MOINES     CLOUDY    66  26  22 NW6       30.03F
IOWA CITY      FAIR      65  25  22 NW6       30.02F
FORT DODGE     SUNNY     60  31  33 N6        30.06F
MARSHALLTOWN   SUNNY     63  29  27 N8        30.02F
CEDAR RAPIDS   FAIR      65  29  25 N6        30.00F
$$

...NORTHERN ILLINOIS...


CITY           SKY/WX    TMP DP  RH WIND       PRES   REMARKS
CHICAGO-OHARE  FAIR      47  28  47 NE13      30.05S
CHICAGO-MIDWAY FAIR      47  29  49 NE12      30.05S
MOLINE         FAIR      65  29  25 VRB5      29.99F
ROCKFORD       FAIR      60  27  28 NE9       30.02F
PEORIA         FAIR      63  38  39 CALM      30.00S
$$

NOTE: "FAIR" INDICATES FEW OR NO CLOUDS BELOW 12,000 FEET WITH NO
SIGNIFICANT WEATHER AND/OR OBSTRUCTIONS TO VISIBILITY. WIND
SPEEDS ARE IN MILES-PER-HOUR.




USA.gov is the U.S. government's official web portal to all federal, state and local government web resources and services.